Location: Lafig�re
(44.4503°N, 4.0357°E)
Time: 02:11:37
(UTC+00:00)

Transit 4A - Pass Details

Date: 27 January 2021
Orbit: 866 x 979 km, 66.8° (Epoch: 24 February)

Event Time Altitude Azimuth Distance (km) Brightness Sun altitude
Rises 16:21:38 0° 160° (SSE) 3,658 11.1 3.1°
Reaches altitude 10° 16:25:08 10° 141° (SE) 2,721 10.3 2.5°
Maximum altitude 16:29:01 17° 103° (ESE) 2,255 9.5 1.9°
Drops below altitude 10° 16:32:54 10° 65° (ENE) 2,727 9.7 1.3°
Sets 16:36:23 0° 47° (NE) 3,670 10.4 0.8°
